www.pogodaiklimat.ru
ПОГОДА в Дойлестауне
Время
и дата
16:54 02.02
17:54 02.02
18:54 02.02
19:54 02.02
20:54 02.02
21:54 02.02
22:54 02.02
23:54 02.02
00:54 03.02
01:54 03.02
02:54 03.02
03:54 03.02
04:54 03.02
05:02 03.02
05:54 03.02
06:54 03.02
07:54 03.02
08:54 03.02
09:54 03.02
10:54 03.02
11:54 03.02
12:54 03.02
13:54 03.02
14:54 03.02
15:54 03.02
16:54 03.02
17:54 03.02
18:54 03.02
19:54 03.02
20:54 03.02
21:54 03.02
22:54 03.02
23:54 03.02
00:54 04.02
01:54 04.02
02:54 04.02
03:54 04.02
04:54 04.02
05:54 04.02
06:54 04.02
07:54 04.02
08:54 04.02
09:54 04.02
10:54 04.02
11:54 04.02
12:54 04.02
13:54 04.02
14:54 04.02
Ветер
(напр.,м/с)
Видим. Явления Облачность Т
(С)
Тd
(С)
f
(%)
Тe
(С)
Тes
(С)
Комфортность P
(гПа)
Po
(гПа)
Тmin
(С)
Tmax
(С)
R
(мм)
R24
(мм)
S
(см)
ЮЗ 3 16 км ясно +3.3 -11.1 34 0 +1 1015.9 1000.8
ЮЗ 2 16 км ясно +2.8 -9.4 40 +1 +1 1015.1 999.8
ЮЗ 3 16 км ясно +1.7 -8.9 45 -2 -2 1014.3 999.1 +1.7 +4.4
ЮЗ 4 16 км ясно +1.7 -9.4 43 -3 -3 1013.7 998.4
ЮЗ 3 16 км ясно +1.1 -8.3 49 -3 -3 1012.7 997.8
ЮЗ 3 16 км ясно +0.6 -6.7 58 -3 -3 1012.4 997.1
ЮЗ 2 16 км ясно 0.0 -6.7 61 -3 -3 1011.7 996.7
ЮЗ 2 16 км ясно 0.0 -5.6 66 -3 -3 1011.4 996.4
ЮЗ 3 16 км ясно -0.6 -5.6 69 -5 -5 1010.8 995.7 -0.6 +1.7
ЮЗ 3 16 км ясно -0.6 -5.6 69 -5 -5 1009.8 994.7
ЮЗ 4 16 км ясно -0.6 -5.6 69 -6 -6 1009.6 994.4
ЮЗ 2 16 км 5/0 2100 m
[Ac]
-1.1 -5.6 71 -5 -5 1009.2 994.1
С 6
{11}
4 км слабый снег 10/10 990 m
[Ns]
-1.1 -6.1 69 -8 -8 1010.9 996.1
СЗ 6
{10}
11 км слабый снег 10/10 1050 m
[Ns]
-1.7 -6.7 69 -8 -8 996.1
С 4
{8}
16 км 5/5 960 м -2.2 -8.9 60 -8 -8 1012.5 997.4
СЗ 6
{11}
16 км 8/8 1170 м -3.9 -12.2 52 -11 -11 1013.8 998.4 -3.9
С 4
{10}
16 км 8/8 1320 м -4.4 -14.4 46 -10 -10 1015.5 1000.1
С 8
{13}
16 км 2/2 1800 м -4.4 -17.8 34 -12 -12 1016.7 1001.4
СЗ 9
{13}
16 км ясно -4.4 -18.3 33 -13 -12 1017.7 1002.4
СЗ 7
{12}
16 км 8/8 1260 м -4.4 -17.8 34 -12 -12 1018.3 1003.1
СЗ 7
{11}
16 км 5/5 1950 м -5.0 -18.3 34 -12 -12 1018.7 1003.4
СЗ 9
{12}
16 км 10/10 1800 м -2.8 -18.3 29 -10 -10 1018.3 1003.1 -5.0 -2.8
СЗ 9
{13}
16 км 8/8 1470 m
[Ac]
-4.4 -17.8 34 -13 -13 1018.8 1003.4
СЗ 12
{16}
16 км 10/10 1950 м -4.4 -20.6 27 -14 -14 1019.7 1004.4
З 9
{14}
16 км ясно -5.6 -22.2 26 -14 -14 1020.9 1005.4
З 10
{13}
16 км ясно -5.6 -22.8 24 -14 -14 1022.1 1006.8
СЗ 6
{13}
16 км ясно -6.7 -23.9 24 -14 -14 1023.9 1008.1
СЗ 7
{14}
16 км ясно -7.8 -23.3 28 -16 -16 1025.3 1009.8 -7.8 -2.8
СЗ 8
{13}
16 км ясно -8.3 -23.3 29 -17 -17 1026.4 1010.8
З 9
{14}
16 км ясно -8.9 -24.4 27 -18 -18 1027.5 1011.8
СЗ 10
{15}
н/о ясно -9.4 -23.9 30 -20 -20 1028.4 1012.4
СЗ 7
{13}
н/о ясно -10.0 -23.9 31 -19 -19 1029.7 1013.8
СЗ 7
{14}
н/о ясно -10.6 -23.9 33 -20 -20 1030.6 1014.8
СЗ 8
{14}
н/о ясно -10.6 -23.3 34 -20 -20 1031.6 1015.8 -10.6 -7.8
СЗ 5
{12}
н/о ясно -10.6 -22.8 36 -18 -18 1032.0 1016.1
СЗ 6
{11}
н/о ясно -10.6 -22.2 38 -19 -19 1032.5 1016.4
нст 3 н/о ясно -11.1 -22.2 39 -17 -17 1033.7 1017.8
С 3 н/о ясно -11.7 -22.2 41 -18 -18 1035.1 1019.1
нст 2 н/о ясно -12.2 -21.7 45 -17 -17 1036.1 1020.1
СЗ 2 н/о ясно -12.8 -21.1 50 -17 -17 1037.4 1021.1 -12.8 -10.6
СВ 2 н/о ясно -12.8 -20.6 52 -17 -17 1038.6 1022.5
нст 2 н/о ясно -10.6 -20.6 44 -15 -14 1039.0 1022.8
штиль 0 н/о ясно -10.0 -20.0 44 -10 -7 1038.9 1022.8
нст 2 н/о 8/0 2850 m
[Ac]
-8.3 -19.4 40 -12 -10 1037.9 1021.8
нст 3 16 км ясно -6.7 -18.9 37 -12 -7 1037.3 1021.1
нст 2 16 км ясно -5.6 -19.4 33 -9 -2 1035.6 1019.4 -12.8 -5.6
ЮЗ 2 16 км 5/0 2250 m
[Ac]
-4.4 -18.3 33 -8 -4 1034.3 1018.4
Ю 5 16 км ясно -3.3 -18.9 29 -9 -7 1033.4 1017.4
Местоположение метеостанции Doylestown Airport: широта 40.3302 долгота -75.1229 высота над уровнем моря 120 м.
В архиве по умолчанию представлена погода в Дойлестауне за последние 1-2 суток. Обновление информации о фактической погоде в базе происходит ежечасно! Архивные данные за месяц целиком и за предыдущие месяцы Вы можете получить, выбрав интересующий диапазон дат из раскрывающегося списка и нажав кнопку "Ввод!".
Внимание! Архив погоды МЕТАР в базе сайта по станциям, не включенным в климатический монитор, хранится не более 60 дней. Нет смысла пытаться выбрать более раннюю дату.
*Определитесь, кто Вы:
Внимание! Время в таблицах - местное (без учета летнего времени). Для получения всемирного времени необходимо вычесть поправку, которая равна -5 ч.
Смотрите также архив погоды в соседних городах и на ближайших метеорологических станциях:
Партнеры нашего сайта:      
Пояснения к столбцам:
  • Ветер - указаны скорость ветра в м/с - средняя за 10 мин, порывы в срок и между сроками (в фигурных скобках) и направление, откуда дует ветер: С - северный,
  • СВ - северо-восточный, В - восточный, ЮВ - юго-восточный, Ю - южный, ЮЗ - юго-западный, З - западный, СЗ - северо-западный.
  • Видимость - горизонтальная дальность видимости в метрах или километрах. При видимости от 1 до 10 км при отсутствии осадков обычно наблюдается дымка, при ухудшении видимости до 1 км и менее - туман. В сухую погоду видимость может ухудшаться дымом, пылью или мглою.
  • Явления - указаны атмосферные явления, наблюдавшиеся в срок или в последний час перед сроком; фигурными скобками обозначены явления, наблюдавшиеся между сроками (за 1-3 часа до срока); квадратными скобками обозначены град или гололедные отложения с указанием их диаметра в мм.
  • Облачность - указаны через наклонную черту общая и нижняя облачность в баллах и высота нижней границы облаков в метрах; квадратными скобками обозначены формы облаков: Ci - перистые, Cs - перисто-слоистые, Cc - перисто-кучевые, Ac - высококучевые, As - высокослоистые, Sc - слоисто-кучевые, Ns - слоисто-дождевые, Cu - кучевые, Cb - кучево-дождевые. Подробнее классификацию облаков см. в Атласе облаков (PDF).
  • T - Температура воздуха - температура, измеренная на высоте 2 м над землей.
  • Td - Температура точки росы - температура, при понижении до которой содержащийся в воздухе водяной пар достигнет насыщения.
  • f - Относительная влажность воздуха - влажноcть воздуха, измеренная на высоте 2 м над землей.
  • Te - Эффективная температура - температура, которую ощущает одетый по сезону человек в тени. Характеристика душности погоды. При расчете учитывается влияние влажности воздуха и скорости ветра на теплоощущения человека.
  • Tes - Эффективная температура на солнце - температура, которую ощущает человек, с поправкой на солнечный нагрев. Характеристика знойности погоды. Зависит от высоты солнца над горизонтом, облачности и скорости ветра. Ночью, в пасмурную погоду, а также при ветре 12 м/с и более поправка равна нулю.
  • P - Атмосферное давление - приведенное к уровню моря атмосферное давление.
  • Po - Атмосферное давление - измеренное на уровне метеостанции атмосферное давление.
  • Tmin - Минимальная температура - минимум температуры воздуха на высоте 2 м над землей.
  • Tmax - Максимальная температура - максимум температуры воздуха на высоте 2 м над землей.
  • R - Количество осадков - Количество выпавших осадков за период времени, мм. При наведении курсора мыши на число - период времени, за который выпало указанное количество осадков.
  • R24 - Количество осадков - Количество выпавших осадков за 24 часа, мм.
  • S - Снежный покров - Высота снежного покрова, см. При наведении курсора мыши на число - состояние снежного покрова и степень покрытия местности в баллах.